• In Belarus
  • List of Countries
  • For 7 days
  • Water Temperature
  • Satellite Maps
  • Weather Map
  • Weather Widgets
  • user-avatar
    Login

    Hourly Weather Capurganá

    Today, 17 February, Saturday

    Time Temperature Precipitation Wind Pressure Humidity
    00:00 +25°C° 0 mm 3 mps 744 mmHg 96%
    01:00 +25°C° 0 mm 3 mps 744 mmHg 97%
    02:00 +25°C° 0.1 mm 3 mps 744 mmHg 97%
    03:00 +25°C° 0.1 mm 3 mps 743 mmHg 97%
    04:00 +25°C° 0.1 mm 4 mps 743 mmHg 97%
    05:00 +25°C° 0.1 mm 3 mps 743 mmHg 97%
    06:00 +25°C° 0.1 mm 3 mps 744 mmHg 96%
    07:00 +25°C° 0 mm 3 mps 744 mmHg 96%
    08:00 +26°C° 0 mm 3 mps 744 mmHg 91%
    09:00 +27°C° 0 mm 3 mps 744 mmHg 86%
    10:00 +28°C° 0 mm 4 mps 745 mmHg 82%
    11:00 +30°C° 0 mm 4 mps 744 mmHg 73%
    12:00 +33°C° 0 mm 4 mps 744 mmHg 64%
    13:00 +34°C° 0 mm 4 mps 744 mmHg 56%
    14:00 +34°C° 0 mm 4 mps 743 mmHg 58%
    15:00 +33°C° 0 mm 4 mps 743 mmHg 60%
    16:00 +33°C° 0 mm 4 mps 742 mmHg 61%
    17:00 +30°C° 0 mm 4 mps 743 mmHg 70%
    18:00 +28°C° 0 mm 4 mps 743 mmHg 79%
    19:00 +26°C° 0 mm 4 mps 743 mmHg 88%
    20:00 +26°C° 0 mm 4 mps 743 mmHg 91%
    21:00 +25°C° 0 mm 4 mps 744 mmHg 93%
    22:00 +25°C° 0 mm 4 mps 744 mmHg 95%
    23:00 +25°C° 0 mm 4 mps 744 mmHg 95%

    Tomorrow, 18 February, Sunday

    Time Temperature Precipitation Wind Pressure Humidity
    00:00 +25°C° 0 mm 4 mps 744 mmHg 96%
    01:00 +25°C° 0 mm 4 mps 744 mmHg 96%
    02:00 +25°C° 0.1 mm 3 mps 744 mmHg 96%
    03:00 +25°C° 0.1 mm 3 mps 743 mmHg 96%
    04:00 +25°C° 0.1 mm 3 mps 743 mmHg 96%
    05:00 +25°C° 0.1 mm 3 mps 743 mmHg 96%
    06:00 +25°C° 0.1 mm 3 mps 743 mmHg 96%
    07:00 +25°C° 0.1 mm 3 mps 743 mmHg 96%
    08:00 +26°C° 0 mm 3 mps 744 mmHg 89%
    09:00 +28°C° 0 mm 3 mps 744 mmHg 81%
    10:00 +29°C° 0 mm 3 mps 744 mmHg 74%
    11:00 +31°C° 0 mm 3 mps 744 mmHg 66%
    12:00 +33°C° 0 mm 3 mps 743 mmHg 58%
    13:00 +35°C° 0 mm 4 mps 743 mmHg 51%
    14:00 +34°C° 0 mm 4 mps 742 mmHg 53%
    15:00 +34°C° 0 mm 4 mps 742 mmHg 54%
    16:00 +34°C° 0 mm 4 mps 741 mmHg 56%
    17:00 +32°C° 0 mm 4 mps 741 mmHg 66%
    18:00 +29°C° 0 mm 4 mps 742 mmHg 76%
    19:00 +26°C° 0 mm 4 mps 742 mmHg 86%
    20:00 +26°C° 0 mm 4 mps 742 mmHg 89%
    21:00 +25°C° 0 mm 4 mps 743 mmHg 92%
    22:00 +25°C° 0 mm 4 mps 744 mmHg 95%
    23:00 +25°C° 0 mm 4 mps 744 mmHg 95%

    Day after tomorrow, 19 February, Monday

    Time Temperature Precipitation Wind Pressure Humidity
    00:00 +25°C° 0 mm 4 mps 743 mmHg 96%
    01:00 +25°C° 0 mm 4 mps 743 mmHg 96%
    02:00 +25°C° 0.1 mm 4 mps 743 mmHg 96%
    03:00 +25°C° 0.1 mm 3 mps 743 mmHg 96%
    04:00 +25°C° 0.1 mm 3 mps 742 mmHg 97%
    05:00 +25°C° 0 mm 3 mps 743 mmHg 96%
    06:00 +25°C° 0 mm 2 mps 743 mmHg 96%
    07:00 +25°C° 0 mm 2 mps 743 mmHg 96%
    08:00 +27°C° 0 mm 2 mps 744 mmHg 85%
    09:00 +29°C° 0 mm 2 mps 744 mmHg 73%
    10:00 +32°C° 0 mm 2 mps 744 mmHg 61%
    11:00 +34°C° 0 mm 2 mps 744 mmHg 55%
    12:00 +35°C° 0 mm 2 mps 743 mmHg 49%
    13:00 +37°C° 0 mm 2 mps 742 mmHg 43%
    14:00 +36°C° 0 mm 2 mps 742 mmHg 47%
    15:00 +35°C° 0 mm 3 mps 741 mmHg 51%
    16:00 +34°C° 0 mm 3 mps 741 mmHg 55%
    17:00 +31°C° 0 mm 3 mps 741 mmHg 64%
    18:00 +29°C° 0 mm 4 mps 741 mmHg 73%
    19:00 +27°C° 0 mm 4 mps 742 mmHg 83%
    20:00 +26°C° 0 mm 4 mps 742 mmHg 86%
    21:00 +25°C° 0 mm 4 mps 743 mmHg 90%
    22:00 +25°C° 0 mm 3 mps 743 mmHg 94%
    23:00 +24°C° 0 mm 3 mps 743 mmHg 95%

    20 February, Tuesday

    Time Temperature Precipitation Wind Pressure Humidity
    00:00 +24°C° 0 mm 3 mps 743 mmHg 96%
    01:00 +24°C° 0 mm 2 mps 743 mmHg 97%
    02:00 +24°C° 0 mm 2 mps 743 mmHg 97%
    03:00 +24°C° 0 mm 2 mps 743 mmHg 97%
    04:00 +24°C° 0 mm 2 mps 742 mmHg 97%
    05:00 +24°C° 0 mm 2 mps 743 mmHg 97%
    06:00 +24°C° 0 mm 1 mps 743 mmHg 96%
    07:00 +24°C° 0 mm 1 mps 744 mmHg 96%
    08:00 +27°C° 0 mm 1 mps 744 mmHg 82%
    09:00 +30°C° 0 mm 1 mps 745 mmHg 69%
    10:00 +33°C° 0 mm 1 mps 745 mmHg 55%
    11:00 +34°C° 0 mm 1 mps 745 mmHg 50%
    12:00 +36°C° 0 mm 2 mps 744 mmHg 45%
    13:00 +37°C° 0 mm 2 mps 743 mmHg 40%
    14:00 +36°C° 0 mm 3 mps 743 mmHg 42%
    15:00 +35°C° 0 mm 4 mps 742 mmHg 43%
    16:00 +35°C° 0 mm 4 mps 741 mmHg 45%
    17:00 +32°C° 0 mm 4 mps 742 mmHg 58%
    18:00 +29°C° 0 mm 4 mps 742 mmHg 70%
    19:00 +26°C° 0 mm 4 mps 743 mmHg 83%
    20:00 +26°C° 0 mm 4 mps 743 mmHg 87%
    21:00 +25°C° 0 mm 4 mps 744 mmHg 91%
    22:00 +23°C° 0 mm 4 mps 744 mmHg 95%
    23:00 +24°C° 0 mm 3 mps 744 mmHg 95%

    21 February, Wednesday

    Time Temperature Precipitation Wind Pressure Humidity
    00:00 +24°C° 0 mm 3 mps 744 mmHg 96%
    01:00 +24°C° 0 mm 2 mps 744 mmHg 97%
    02:00 +24°C° 0 mm 2 mps 744 mmHg 97%
    03:00 +24°C° 0 mm 2 mps 743 mmHg 97%
    04:00 +24°C° 0 mm 2 mps 743 mmHg 98%
    05:00 +24°C° 0 mm 2 mps 743 mmHg 97%
    06:00 +24°C° 0 mm 1 mps 744 mmHg 96%
    07:00 +24°C° 0 mm 1 mps 744 mmHg 96%
    08:00 +27°C° 0 mm 1 mps 745 mmHg 82%
    09:00 +30°C° 0 mm 1 mps 745 mmHg 69%
    10:00 +33°C° 0 mm 1 mps 745 mmHg 56%
    11:00 +34°C° 0 mm 1 mps 745 mmHg 50%
    12:00 +35°C° 0 mm 2 mps 744 mmHg 44%
    13:00 +36°C° 0 mm 2 mps 743 mmHg 39%
    14:00 +36°C° 0 mm 3 mps 743 mmHg 41%
    15:00 +35°C° 0 mm 3 mps 742 mmHg 42%
    16:00 +35°C° 0 mm 4 mps 742 mmHg 44%
    17:00 +32°C° 0 mm 4 mps 742 mmHg 57%
    18:00 +29°C° 0 mm 4 mps 742 mmHg 70%
    19:00 +26°C° 0 mm 4 mps 743 mmHg 82%
    20:00 +26°C° 0 mm 4 mps 743 mmHg 86%
    21:00 +25°C° 0 mm 4 mps 744 mmHg 90%
    22:00 +25°C° 0 mm 4 mps 744 mmHg 94%
    23:00 +23°C° 0 mm 4 mps 744 mmHg 95%

    22 February, Thursday

    Time Temperature Precipitation Wind Pressure Humidity
    00:00 +24°C° 0 mm 3 mps 744 mmHg 96%
    01:00 +24°C° 0 mm 3 mps 744 mmHg 96%
    02:00 +24°C° 0 mm 2 mps 744 mmHg 97%
    03:00 +24°C° 0 mm 2 mps 743 mmHg 97%
    04:00 +24°C° 0 mm 2 mps 743 mmHg 97%
    05:00 +24°C° 0 mm 2 mps 744 mmHg 97%
    06:00 +24°C° 0 mm 2 mps 744 mmHg 96%
    07:00 +25°C° 0 mm 2 mps 744 mmHg 96%
    08:00 +27°C° 0 mm 1 mps 745 mmHg 83%
    09:00 +30°C° 0 mm 1 mps 745 mmHg 70%
    10:00 +32°C° 0 mm 1 mps 746 mmHg 57%
    11:00 +34°C° 0 mm 1 mps 745 mmHg 52%
    12:00 +36°C° 0 mm 2 mps 744 mmHg 46%
    13:00 +37°C° 0 mm 2 mps 744 mmHg 40%
    14:00 +36°C° 0 mm 3 mps 743 mmHg 43%
    15:00 +35°C° 0 mm 3 mps 743 mmHg 46%
    16:00 +34°C° 0 mm 3 mps 742 mmHg 48%
    17:00 +32°C° 0 mm 4 mps 742 mmHg 59%
    18:00 +28°C° 0 mm 4 mps 743 mmHg 70%
    19:00 +26°C° 0 mm 4 mps 743 mmHg 81%
    20:00 +26°C° 0 mm 4 mps 743 mmHg 86%
    21:00 +25°C° 0 mm 4 mps 744 mmHg 90%
    22:00 +23°C° 0 mm 4 mps 744 mmHg 95%
    23:00 +24°C° 0 mm 3 mps 744 mmHg 95%
    Show more